User: anonymous   Login
Location: Caltech
(34.1382°N, 118.1253°W)
Time: 00:09:46
(UTC-07:00)
Language:

CZ-4B DEB - Orbit

View from above orbital plane
View from above orbital plane
View from above satellite
View from above satellite

Ground track
Ground track

The orbit data is extracted from the following two-line orbital elements,

1 27433U 02024D   16120.83067061  .00000165  00000-0  11429-3 0  9990
2 27433  98.9173  89.0608 0015262 134.3339 225.9086 14.12061226718835
Epoch (UTC): 29 April 2016 19:56:09
Eccentricity: 0.0015262
inclination: 98.9173°
perigee height: 841 km
apogee height: 863 km
right ascension of ascending node: 89.0608°
argument of perigee: 134.3339°
revolutions per day: 14.12061226
mean anomaly at epoch: 225.9086°
orbit number at epoch: 71883

The dashed part of the orbit path shows where the satellite is in the earth's shadow,  

DLR